Location: Newark
(43.4306°N, 0.3089°E)
Time: 05:17:53
(UTC+00:00)

Vanguard 3 - Pass Details

Date: 30 August 2019
Orbit: 508 x 3263 km, 33.4° (Epoch: 19 September)

Event Time Altitude Azimuth Distance (km) Brightness Sun altitude
Rises 15:16:39 0° 245° (WSW) 6,331 12.7 35.1°
Reaches altitude 10° 15:21:44 10° 240° (WSW) 4,892 12.5 34.2°
Maximum altitude 15:33:13 41° 176° (S) 2,075 9.8 32.3°
Drops below altitude 10° 15:39:59 10° 108° (ESE) 2,900 9.6 31.1°
Sets 15:42:15 0° 101° (E) 3,588 10.0 30.7°
